Location: Newark
(31.0436°N, 112.2008°E)
Time: 18:40:57
(UTC+00:00)

LightSail 2 - Pass Details

Date: 28 January 2020
Orbit: 701 x 721 km, 24.0° (Epoch: 16 February)

Event Time Altitude Azimuth Distance (km) Brightness Sun altitude
Rises 11:14:17 0° 260° (W) 3,074 10.3 -15.6°
Reaches altitude 10° 11:17:15 10° 244° (WSW) 2,158 8.9 -16.2°
Maximum altitude 11:20:56 20° 197° (SSW) 1,583 7.3 -17.0°
Drops below altitude 10° 11:24:39 10° 150° (SSE) 2,165 7.5 -17.8°
Enters shadow 11:25:45 - 143° (SE) 2,482 7.7 -18.0°
